RYR2511 LEIB-LIRF

Flight info

Callsign RYR2511
Flight time N/A
Altitude 38000
Route KABRE DCT ELTAN DCT MORSS DCT BAVON DCT ORKUM DCT ELSAG DCT ALG DCT ROMPO DCT BATOX DCT TINTO L5 VALMA
Aircraft B38M/M-SDE1FGHILORVWXY/HB1

Departure

Time 2026-05-05 18:31
Airport Ibiza Airport (LEIB)

Arrival

Time N/A
Airport Rome–Fiumicino Leonardo da Vinci International Airport (LIRF)
Time Latitude Longitude Altitude Speed Heading
2026-05-05 18:02 38.87563 1.36918 12 ft 0 kts 333°
2026-05-05 18:22 38.87562 1.36918 11 ft 1 kts 333°
2026-05-05 18:22 38.87542 1.36932 13 ft 4 kts 333°
2026-05-05 18:23 38.87521 1.36945 12 ft 4 kts 343°
2026-05-05 18:23 38.87500 1.36943 12 ft 4 kts 44°
2026-05-05 18:23 38.87487 1.36919 14 ft 1 kts 62°
2026-05-05 18:23 38.87485 1.36914 11 ft 0 kts 62°
2026-05-05 18:25 38.87489 1.36925 13 ft 3 kts 62°
2026-05-05 18:26 38.87498 1.36945 12 ft 2 kts 63°
2026-05-05 18:26 38.87520 1.37000 13 ft 13 kts 62°
2026-05-05 18:26 38.87573 1.37126 11 ft 18 kts 61°
2026-05-05 18:26 38.87634 1.37279 13 ft 20 kts 62°
2026-05-05 18:27 38.87696 1.37434 11 ft 14 kts 76°
2026-05-05 18:27 38.87648 1.37512 11 ft 13 kts 151°
2026-05-05 18:27 38.87580 1.37572 11 ft 7 kts 98°
2026-05-05 18:27 38.87603 1.37635 11 ft 9 kts 63°
2026-05-05 18:28 38.87697 1.37856 13 ft 18 kts 62°
2026-05-05 18:28 38.87757 1.38003 12 ft 19 kts 62°
2026-05-05 18:28 38.87822 1.38159 13 ft 21 kts 62°
2026-05-05 18:29 38.87894 1.38332 11 ft 23 kts 62°
2026-05-05 18:29 38.87970 1.38517 11 ft 24 kts 61°
2026-05-05 18:29 38.87992 1.38638 12 ft 11 kts 140°
2026-05-05 18:29 38.87924 1.38684 13 ft 11 kts 155°
2026-05-05 18:30 38.87853 1.38675 15 ft 13 kts 230°
2026-05-05 18:30 38.87756 1.38450 15 ft 62 kts 242°
2026-05-05 18:30 38.87428 1.37653 12 ft 137 kts 242°
2026-05-05 18:30 38.86911 1.36396 357 ft 171 kts 243°
2026-05-05 18:31 38.86371 1.35140 1444 ft 161 kts 234°
2026-05-05 18:31 38.85605 1.33975 2067 ft 183 kts 225°
2026-05-05 18:31 38.84668 1.32699 2697 ft 209 kts 225°
2026-05-05 18:31 38.83687 1.31368 3877 ft 202 kts 227°
2026-05-05 18:32 38.82696 1.30030 4829 ft 213 kts 227°
2026-05-05 18:32 38.81656 1.28636 5775 ft 219 kts 227°
2026-05-05 18:32 38.80318 1.27541 6490 ft 243 kts 199°
2026-05-05 18:32 38.78561 1.27415 7151 ft 267 kts 173°
2026-05-05 18:33 38.76703 1.27878 7847 ft 283 kts 173°
2026-05-05 18:33 38.74748 1.28331 8835 ft 285 kts 174°
2026-05-05 18:33 38.72794 1.28781 9876 ft 287 kts 175°
2026-05-05 18:33 38.70819 1.29235 10781 ft 289 kts 175°
2026-05-05 18:34 38.68834 1.29692 11683 ft 290 kts 175°
2026-05-05 18:34 38.66841 1.30151 12528 ft 292 kts 176°
2026-05-05 18:34 38.64841 1.30611 13359 ft 293 kts 176°
2026-05-05 18:34 38.62827 1.31075 14066 ft 296 kts 176°
2026-05-05 18:35 38.60789 1.31768 14456 ft 319 kts 161°
2026-05-05 18:35 38.58951 1.33511 14638 ft 353 kts 136°
2026-05-05 18:35 38.57764 1.36376 14929 ft 381 kts 108°
2026-05-05 18:35 38.57454 1.39791 15370 ft 391 kts 99°
2026-05-05 18:36 38.57088 1.43262 15817 ft 396 kts 102°
2026-05-05 18:36 38.56675 1.46751 16367 ft 399 kts 102°
2026-05-05 18:36 38.56240 1.50271 16853 ft 403 kts 102°
2026-05-05 18:36 38.55793 1.53816 17361 ft 406 kts 102°
2026-05-05 18:37 38.55478 1.57363 17829 ft 411 kts 91°
2026-05-05 18:37 38.55917 1.60985 18299 ft 416 kts 72°
2026-05-05 18:37 38.57111 1.64353 18667 ft 419 kts 60°
2026-05-05 18:37 38.58519 1.67627 19030 ft 422 kts 60°
2026-05-05 18:38 38.59951 1.70912 19437 ft 424 kts 59°
2026-05-05 18:38 38.61402 1.74206 19805 ft 427 kts 59°
2026-05-05 18:38 38.62871 1.77523 20173 ft 429 kts 59°
2026-05-05 18:38 38.64347 1.80852 20560 ft 432 kts 59°
2026-05-05 18:39 38.65813 1.84161 20875 ft 435 kts 59°
2026-05-05 18:39 38.67310 1.87540 21227 ft 438 kts 59°
2026-05-05 18:39 38.68811 1.90933 21577 ft 440 kts 59°
2026-05-05 18:39 38.70323 1.94356 21909 ft 442 kts 59°
2026-05-05 18:40 38.71837 1.97785 22235 ft 444 kts 59°
2026-05-05 18:40 38.73360 2.01239 22551 ft 447 kts 59°
2026-05-05 18:40 38.74892 2.04718 22860 ft 449 kts 59°
2026-05-05 18:40 38.76427 2.08207 23157 ft 451 kts 59°
2026-05-05 18:41 38.77947 2.11667 23451 ft 453 kts 59°
2026-05-05 18:41 38.79494 2.15191 23688 ft 455 kts 59°
2026-05-05 18:41 38.81045 2.18727 23919 ft 456 kts 59°
2026-05-05 18:41 38.82601 2.22281 24152 ft 458 kts 59°
2026-05-05 18:42 38.84162 2.25850 24378 ft 460 kts 59°
2026-05-05 18:42 38.85731 2.29439 24587 ft 461 kts 60°
2026-05-05 18:42 38.87300 2.33033 24848 ft 462 kts 60°
2026-05-05 18:42 38.88875 2.36646 24981 ft 466 kts 60°
2026-05-05 18:43 38.90459 2.40283 25204 ft 467 kts 60°
2026-05-05 18:43 38.92024 2.43880 25389 ft 469 kts 60°
2026-05-05 18:43 38.93616 2.47544 25571 ft 470 kts 60°
2026-05-05 18:43 38.95211 2.51219 25766 ft 472 kts 60°
2026-05-05 18:44 38.96807 2.54902 25952 ft 474 kts 60°
2026-05-05 18:44 38.98411 2.58605 26177 ft 475 kts 60°
2026-05-05 18:44 39.00020 2.62328 26390 ft 477 kts 60°
2026-05-05 18:44 39.01632 2.66059 26586 ft 478 kts 60°
2026-05-05 18:45 39.03226 2.69754 26776 ft 479 kts 60°
2026-05-05 18:45 39.04841 2.73503 27006 ft 480 kts 60°
2026-05-05 18:45 39.06459 2.77261 27173 ft 482 kts 60°
2026-05-05 18:45 39.08086 2.81045 27352 ft 483 kts 60°
2026-05-05 18:46 39.09713 2.84834 27524 ft 485 kts 60°
2026-05-05 18:46 39.11346 2.88639 27618 ft 488 kts 61°
2026-05-05 18:46 39.12988 2.92471 27837 ft 488 kts 61°
2026-05-05 18:46 39.14587 2.96335 27971 ft 490 kts 63°
2026-05-05 18:47 39.16107 3.00203 28119 ft 491 kts 63°
2026-05-05 18:47 39.17660 3.04125 28257 ft 492 kts 63°
2026-05-05 18:47 39.19220 3.08057 28413 ft 493 kts 63°
2026-05-05 18:47 39.20778 3.11986 28603 ft 492 kts 63°
2026-05-05 18:48 39.23905 3.19885 28828 ft 495 kts 63°
2026-05-05 18:48 39.25466 3.23838 28956 ft 496 kts 63°
2026-05-05 18:48 39.27033 3.27808 29063 ft 497 kts 63°
2026-05-05 18:49 39.28602 3.31790 29173 ft 498 kts 63°
2026-05-05 18:49 39.30150 3.35725 29291 ft 499 kts 63°
2026-05-05 18:49 39.33302 3.43750 29562 ft 501 kts 63°
2026-05-05 18:50 39.34864 3.47735 30300 ft 493 kts 63°
2026-05-05 18:50 39.36408 3.51679 30727 ft 492 kts 64°
2026-05-05 18:50 39.37958 3.55644 30938 ft 496 kts 64°
2026-05-05 18:50 39.39513 3.59626 31254 ft 497 kts 64°
2026-05-05 18:51 39.41075 3.63632 31529 ft 499 kts 64°
2026-05-05 18:51 39.42616 3.67590 31798 ft 501 kts 64°
2026-05-05 18:51 39.44188 3.71632 32072 ft 503 kts 64°
2026-05-05 18:51 39.45762 3.75683 32338 ft 505 kts 64°
2026-05-05 18:52 39.47339 3.79752 32611 ft 507 kts 64°
2026-05-05 18:52 39.48921 3.83833 32900 ft 507 kts 64°
2026-05-05 18:52 39.50500 3.87917 33209 ft 508 kts 64°
2026-05-05 18:52 39.52084 3.92017 33461 ft 511 kts 64°
2026-05-05 18:53 39.53661 3.96106 33599 ft 516 kts 64°
2026-05-05 18:53 39.55264 4.00268 33884 ft 517 kts 64°
2026-05-05 18:53 39.56870 4.04440 34099 ft 519 kts 64°
2026-05-05 18:53 39.58481 4.08631 34318 ft 520 kts 64°
2026-05-05 18:54 39.60093 4.12832 34548 ft 522 kts 64°
2026-05-05 18:54 39.61880 4.16927 34757 ft 523 kts 52°
2026-05-05 18:54 39.64235 4.20512 34990 ft 522 kts 47°
2026-05-05 18:54 39.66630 4.24057 35270 ft 521 kts 47°
2026-05-05 18:55 39.69011 4.27562 35826 ft 514 kts 46°
2026-05-05 18:55 39.71347 4.30975 36129 ft 513 kts 46°
2026-05-05 18:55 39.73720 4.34440 36436 ft 511 kts 46°
2026-05-05 18:55 39.76065 4.37867 36920 ft 505 kts 46°
2026-05-05 18:56 39.78404 4.41288 37059 ft 508 kts 47°
2026-05-05 18:56 39.80471 4.44998 37326 ft 506 kts 63°
2026-05-05 18:56 39.81668 4.49246 37627 ft 499 kts 81°
2026-05-05 18:56 39.82372 4.53669 37713 ft 501 kts 76°
2026-05-05 18:57 39.84384 4.62310 37947 ft 503 kts 74°
2026-05-05 18:57 39.86499 4.71057 37885 ft 509 kts 74°
2026-05-05 18:58 39.88631 4.79860 37902 ft 510 kts 74°
2026-05-05 18:58 39.90755 4.88662 37905 ft 509 kts 74°
2026-05-05 18:59 39.92858 4.97411 37914 ft 509 kts 74°
2026-05-05 18:59 39.94968 5.06222 37905 ft 509 kts 74°
2026-05-05 19:00 39.97071 5.15039 37910 ft 510 kts 74°
2026-05-05 19:00 39.99168 5.23863 37912 ft 509 kts 75°
2026-05-05 19:01 40.00905 5.31196 37909 ft 509 kts 75°
2026-05-05 19:01 40.03324 5.41447 37910 ft 507 kts 74°
2026-05-05 19:02 40.05041 5.48756 37913 ft 507 kts 74°
2026-05-05 19:02 40.07103 5.57557 37914 ft 507 kts 74°
2026-05-05 19:03 40.09492 5.67801 37914 ft 507 kts 74°
2026-05-05 19:03 40.11536 5.76602 37947 ft 505 kts 75°
2026-05-05 19:04 40.13226 5.83903 37915 ft 506 kts 75°
2026-05-05 19:04 40.15257 5.92710 37915 ft 506 kts 75°
2026-05-05 19:05 40.17611 6.02959 37914 ft 506 kts 75°
2026-05-05 19:05 40.19627 6.11773 37902 ft 505 kts 75°
2026-05-05 19:06 40.21291 6.19073 37915 ft 503 kts 75°
2026-05-05 19:06 40.23284 6.27852 37921 ft 503 kts 75°
2026-05-05 19:07 40.25272 6.36643 37916 ft 503 kts 75°
2026-05-05 19:07 40.27252 6.45433 37916 ft 503 kts 75°
2026-05-05 19:08 40.29210 6.54157 37947 ft 502 kts 75°
2026-05-05 19:08 40.31176 6.62951 37920 ft 504 kts 75°
2026-05-05 19:09 40.33137 6.71762 37924 ft 504 kts 75°
2026-05-05 19:09 40.35092 6.80575 37922 ft 504 kts 75°
2026-05-05 19:10 40.37039 6.89392 37920 ft 503 kts 75°
2026-05-05 19:10 40.38965 6.98147 37924 ft 503 kts 75°
2026-05-05 19:11 40.40895 7.06959 37927 ft 503 kts 75°
2026-05-05 19:11 40.42819 7.15774 37933 ft 502 kts 75°
2026-05-05 19:12 40.44737 7.24597 37937 ft 503 kts 75°
2026-05-05 19:12 40.46647 7.33423 37938 ft 503 kts 75°
2026-05-05 19:13 40.48537 7.42195 37938 ft 503 kts 76°
2026-05-05 19:13 40.50434 7.51031 37935 ft 502 kts 76°
2026-05-05 19:14 40.51372 7.55415 37440 ft 498 kts 76°
2026-05-05 19:14 40.52311 7.59810 36588 ft 501 kts 76°
2026-05-05 19:14 40.53250 7.64216 36023 ft 499 kts 76°
2026-05-05 19:14 40.54186 7.68616 35941 ft 502 kts 76°
2026-05-05 19:15 40.56073 7.77515 35941 ft 507 kts 76°
2026-05-05 19:15 40.57946 7.86383 35945 ft 507 kts 76°
2026-05-05 19:16 40.59824 7.95318 35951 ft 506 kts 76°
2026-05-05 19:16 40.61476 8.04279 35934 ft 499 kts 89°
2026-05-05 19:17 40.61939 8.13372 35961 ft 500 kts 87°
2026-05-05 19:17 40.62682 8.22433 35967 ft 503 kts 82°
2026-05-05 19:18 40.63657 8.26858 35949 ft 505 kts 68°
2026-05-05 19:18 40.65004 8.31139 35975 ft 508 kts 69°
2026-05-05 19:18 40.67674 8.39745 35956 ft 507 kts 68°
2026-05-05 19:19 40.70371 8.48324 35946 ft 507 kts 68°
2026-05-05 19:19 40.73062 8.56899 35952 ft 507 kts 68°
2026-05-05 19:20 40.75730 8.65428 35956 ft 506 kts 68°
2026-05-05 19:20 40.78413 8.74028 35949 ft 507 kts 68°
2026-05-05 19:21 40.81079 8.82607 35960 ft 506 kts 68°